Karlovy Vary, Czech Republic

12:14 AM CEST on August 25, 2016 (GMT +0200)
Karlovy Vary

Weather History for LKKV - June, 2013

Change the Weather History Date:

Tuesday, June 4, 2013

  Actual Average (EDQM) Record (EDQM)
Temperature  
Mean Temperature 52 °F -  
Max Temperature 57 °F 64 °F 82 °F (2003)
Min Temperature 46 °F 48 °F 39 °F (2001)
Degree Days  
Heating Degree Days 14    
Growing Degree Days 2 (Base 50)    
Moisture  
Dew Point 45 °F    
Average Humidity 82    
Maximum Humidity 100    
Minimum Humidity 66    
Precipitation  
Precipitation 0.00 in - - ()
Sea Level Pressure  
Sea Level Pressure 30.09 in    
Wind  
Wind Speed 6 mph ()    
Max Wind Speed 14 mph    
Max Gust Speed -    
Visibility 6.2 miles    
Events Rain    
Averages and records for this station are not official NWS values.
T = Trace of Precipitation, MM = Missing Value Source: Averaged Metar Reports

Daily Weather History Graph

Daily Weather History Graph

Search for Another Location

Airport or City:

Trip Planner

Search our weather history database for the weather conditions in past years. The results will help you decide how hot, cold, wet, or windy it might be!

Date:

Astronomy

Jun. 04, 2013 Rise Set
Actual Time 5:01 AM CEST 9:12 PM CEST
Civil Twilight 4:17 AM CEST 9:56 PM CEST
Nautical Twilight 3:15 AM CEST 10:59 PM CEST
Astronomical Twilight 1:39 AM CEST 12:34 AM CEST
Moon 2:44 AM CEST (6/4) 5:05 PM CEST (6/4)
Length of Visible Light 17h 38m
Length of Day
16h 11m
Waning Crescent, 16% of the Moon is Illuminated
Jun 4
Waning Crescent
Jun 8
New
Jun 16
First Quarter
Jun 23
Full
Jun 30
Last Quarter

Hourly Weather History & Observations

Time (CEST) Temp. Windchill Dew Point Humidity Pressure Visibility Wind Dir Wind Speed Gust Speed Precip Events Conditions
12:00 AM 46.4 °F 43.5 °F 41.0 °F 81% 30.12 in 6.2 mi West 5.8 mph - N/A   Partly Cloudy
1:00 AM 50.0 °F - 41.0 °F 71% 30.12 in - NNW 5.8 mph - N/A   Clear
2:00 AM 50.0 °F - 39.2 °F 66% 30.12 in - NNW 10.4 mph - N/A   Clear
3:00 AM 50.0 °F - 41.0 °F 71% 30.09 in - NW 5.8 mph - N/A   Clear
4:00 AM 48.2 °F - 42.8 °F 82% 30.09 in 6.2 mi NW 6.9 mph - N/A Rain Light Rain
4:07 AM 48.2 °F - 42.8 °F 82% 30.09 in - NW 6.9 mph - N/A   Clear
5:00 AM 46.4 °F 43.5 °F 42.8 °F 87% 30.09 in - WNW 5.8 mph - N/A   Clear
6:00 AM 46.4 °F 43.5 °F 42.8 °F 87% 30.09 in 6.2 mi NW 5.8 mph - N/A Rain Light Rain
6:21 AM 46.4 °F 43.5 °F 42.8 °F 87% 30.09 in - NW 5.8 mph - N/A   Clear
7:00 AM 46.4 °F 42.9 °F 42.8 °F 87% 30.09 in 6.2 mi NW 6.9 mph - N/A   Mostly Cloudy
7:40 AM 46.4 °F 43.5 °F 42.8 °F 87% 30.09 in 6.2 mi WNW 5.8 mph - N/A Rain Light Rain
8:00 AM 46.4 °F 43.5 °F 42.8 °F 87% 30.09 in 6.2 mi West 5.8 mph - N/A Rain Light Rain
8:06 AM 46.4 °F 43.5 °F 42.8 °F 87% 30.09 in 6.2 mi WNW 5.8 mph - N/A Rain Light Rain
8:30 AM 46.4 °F 42.9 °F 44.6 °F 93% 30.09 in 6.2 mi West 6.9 mph - N/A Rain Light Rain
9:00 AM 46.4 °F 42.9 °F 44.6 °F 93% 30.09 in 6.2 mi West 6.9 mph - N/A Rain Light Rain
9:30 AM 48.2 °F - 44.6 °F 87% 30.09 in 6.2 mi West 10.4 mph - N/A Rain Light Rain
10:00 AM 48.2 °F - 46.4 °F 93% 30.09 in 6.2 mi WNW 13.8 mph - N/A Rain Light Rain
10:30 AM 50.0 °F - 46.4 °F 87% 30.09 in 6.2 mi West 9.2 mph - N/A   Partly Cloudy
10:49 AM 50.0 °F - 44.6 °F 82% 30.09 in 6.2 mi West 10.4 mph - N/A Rain Light Rain
11:00 AM 50.0 °F - 46.4 °F 87% 30.09 in 6.2 mi West 11.5 mph - N/A Rain Light Rain
11:30 AM 50.0 °F - 44.6 °F 82% 30.09 in 6.2 mi WNW 9.2 mph - N/A Rain Light Rain
12:00 PM 50.0 °F - 46.4 °F 87% 30.09 in 6.2 mi WNW 9.2 mph - N/A Rain Light Rain
12:30 PM 50.0 °F - 44.6 °F 82% 30.09 in 6.2 mi WNW 9.2 mph - N/A   Partly Cloudy
1:00 PM 50.0 °F - 44.6 °F 82% 30.09 in - WNW 9.2 mph - N/A   Clear
1:05 PM 50.0 °F - 44.6 °F 82% 30.09 in 6.2 mi WNW 9.2 mph - N/A Rain Light Rain
1:30 PM 51.8 °F - 44.6 °F 76% 30.09 in 6.2 mi WNW 8.1 mph - N/A Rain Light Rain
2:00 PM 51.8 °F - 46.4 °F 82% 30.09 in 6.2 mi NW 6.9 mph - N/A Rain Light Rain
2:30 PM 51.8 °F - 44.6 °F 76% 30.09 in - NW 8.1 mph - N/A   Clear
3:00 PM 53.6 °F - 46.4 °F 77% 30.06 in - WNW 8.1 mph - N/A   Clear
3:30 PM 55.4 °F - 46.4 °F 72% 30.06 in 6.2 mi West 5.8 mph - N/A   Mostly Cloudy
4:00 PM 57.2 °F - 46.4 °F 67% 30.06 in - WNW 6.9 mph - N/A   Clear
4:30 PM 57.2 °F - 48.2 °F 72% 30.06 in - West 5.8 mph - N/A   Clear
5:00 PM 57.2 °F - 46.4 °F 67% 30.06 in - NW 8.1 mph - N/A   Clear
5:30 PM 57.2 °F - 48.2 °F 72% 30.06 in 6.2 mi NW 5.8 mph - N/A   Scattered Clouds
6:00 PM 57.2 °F - 48.2 °F 72% 30.06 in 6.2 mi NW 8.1 mph - N/A   Mostly Cloudy
6:30 PM 55.4 °F - 48.2 °F 77% 30.09 in 6.2 mi North 6.9 mph - N/A   Mostly Cloudy
6:46 PM 53.6 °F - 48.2 °F 82% 30.09 in 6.2 mi NNW 5.8 mph - N/A   Mostly Cloudy
7:00 PM 53.6 °F - 50.0 °F 88% 30.09 in 6.2 mi NNW 3.5 mph - N/A   Mostly Cloudy
7:30 PM 53.6 °F - 50.0 °F 88% 30.09 in 6.2 mi Variable 2.3 mph - N/A   Scattered Clouds
8:00 PM 53.6 °F - 50.0 °F 88% 30.09 in - Variable 2.3 mph - N/A   Clear
8:30 PM 53.6 °F - 48.2 °F 82% 30.09 in - NNE 2.3 mph - N/A   Clear
9:00 PM 53.6 °F - 50.0 °F 88% 30.09 in - Variable 1.2 mph - N/A   Clear
10:00 PM 51.8 °F - 50.0 °F 94% 30.09 in 6.2 mi WNW 2.3 mph - N/A   Partly Cloudy
11:00 PM 48.2 °F - 48.2 °F 100% 30.12 in - Variable 2.3 mph - N/A   Clear